JST295 NZAA-NZQN

Flight info

Callsign JST295
Flight time 2h 12m
Altitude 38000
Route KAPAI Y320 DOVOT
Aircraft A320/M-SDE3FGHIRWY/LB1

Departure

Time 2026-05-04 12:57
Airport Auckland International Airport (NZAA)

Arrival

Time 2026-05-04 15:09
Airport Queenstown Airport (NZQN)
Time Latitude Longitude Altitude Speed Heading
2026-05-04 12:36 -37.00759 174.78892 26 ft 0 kts 71°
2026-05-04 12:41 -37.00760 174.78892 25 ft 0 kts 71°
2026-05-04 12:47 -37.00760 174.78888 25 ft 3 kts 71°
2026-05-04 12:47 -37.00766 174.78857 31 ft 4 kts 94°
2026-05-04 12:47 -37.00758 174.78830 29 ft 4 kts 150°
2026-05-04 12:48 -37.00755 174.78827 28 ft 4 kts 161°
2026-05-04 12:48 -37.00779 174.78838 28 ft 2 kts 161°
2026-05-04 12:48 -37.00780 174.78838 28 ft 0 kts 161°
2026-05-04 12:52 -37.00795 174.78845 29 ft 6 kts 161°
2026-05-04 12:53 -37.00863 174.78874 27 ft 13 kts 161°
2026-05-04 12:53 -37.00940 174.78873 27 ft 12 kts 221°
2026-05-04 12:53 -37.00972 174.78771 27 ft 14 kts 251°
2026-05-04 12:53 -37.01006 174.78648 25 ft 16 kts 250°
2026-05-04 12:54 -37.01047 174.78498 27 ft 21 kts 252°
2026-05-04 12:54 -37.01098 174.78309 29 ft 24 kts 251°
2026-05-04 12:54 -37.01157 174.78099 28 ft 27 kts 250°
2026-05-04 12:54 -37.01220 174.77871 26 ft 29 kts 251°
2026-05-04 12:55 -37.01285 174.77772 28 ft 13 kts 160°
2026-05-04 12:55 -37.01375 174.77814 28 ft 15 kts 162°
2026-05-04 12:55 -37.01417 174.77860 26 ft 7 kts 82°
2026-05-04 12:55 -37.01409 174.77890 26 ft 0 kts 69°
2026-05-04 12:56 -37.01386 174.77967 26 ft 38 kts 70°
2026-05-04 12:56 -37.01223 174.78562 28 ft 103 kts 71°
2026-05-04 12:56 -37.00930 174.79613 27 ft 150 kts 71°
2026-05-04 12:57 -37.00570 174.80922 460 ft 159 kts 71°
2026-05-04 12:57 -37.00205 174.82224 1139 ft 158 kts 71°
2026-05-04 12:57 -36.99854 174.83499 1767 ft 160 kts 70°
2026-05-04 12:57 -36.99459 174.84936 2007 ft 184 kts 70°
2026-05-04 12:58 -36.99023 174.86503 2357 ft 201 kts 69°
2026-05-04 12:58 -36.98554 174.88189 3136 ft 203 kts 69°
2026-05-04 12:58 -36.98114 174.89867 3844 ft 213 kts 75°
2026-05-04 12:58 -36.98169 174.91828 4219 ft 243 kts 107°
2026-05-04 12:59 -36.99252 174.93574 4797 ft 268 kts 145°
2026-05-04 12:59 -37.01058 174.94239 5617 ft 280 kts 180°
2026-05-04 12:59 -37.02982 174.93730 6458 ft 287 kts 199°
2026-05-04 12:59 -37.04810 174.92663 7293 ft 293 kts 207°
2026-05-04 13:00 -37.06595 174.91394 8104 ft 296 kts 209°
2026-05-04 13:00 -37.08396 174.90088 8933 ft 300 kts 208°
2026-05-04 13:00 -37.10228 174.88814 9759 ft 303 kts 207°
2026-05-04 13:00 -37.12089 174.87590 10427 ft 313 kts 206°
2026-05-04 13:01 -37.14110 174.86322 10665 ft 335 kts 205°
2026-05-04 13:01 -37.16247 174.85029 11184 ft 345 kts 205°
2026-05-04 13:01 -37.18427 174.83736 11870 ft 349 kts 204°
2026-05-04 13:01 -37.20631 174.82434 12578 ft 352 kts 205°
2026-05-04 13:02 -37.22858 174.81114 13286 ft 355 kts 205°
2026-05-04 13:02 -37.25098 174.79775 13991 ft 358 kts 205°
2026-05-04 13:02 -37.27358 174.78418 14646 ft 361 kts 205°
2026-05-04 13:02 -37.29629 174.77053 15237 ft 364 kts 205°
2026-05-04 13:03 -37.31921 174.75675 15820 ft 367 kts 205°
2026-05-04 13:03 -37.34242 174.74278 16403 ft 370 kts 205°
2026-05-04 13:03 -37.36580 174.72872 16980 ft 374 kts 205°
2026-05-04 13:03 -37.38939 174.71453 17557 ft 377 kts 206°
2026-05-04 13:04 -37.41316 174.70024 18144 ft 380 kts 206°
2026-05-04 13:04 -37.43715 174.68577 18725 ft 384 kts 206°
2026-05-04 13:04 -37.46107 174.67133 19237 ft 387 kts 206°
2026-05-04 13:04 -37.48544 174.65660 19763 ft 390 kts 206°
2026-05-04 13:05 -37.50999 174.64176 20316 ft 392 kts 206°
2026-05-04 13:05 -37.53468 174.62683 20841 ft 395 kts 206°
2026-05-04 13:05 -37.55952 174.61181 21361 ft 398 kts 206°
2026-05-04 13:05 -37.58460 174.59661 21833 ft 400 kts 206°
2026-05-04 13:06 -37.60981 174.58132 22314 ft 403 kts 206°
2026-05-04 13:06 -37.63517 174.56593 22784 ft 406 kts 206°
2026-05-04 13:06 -37.66071 174.55042 23269 ft 408 kts 206°
2026-05-04 13:06 -37.68641 174.53482 23749 ft 411 kts 206°
2026-05-04 13:07 -37.71227 174.51912 24199 ft 414 kts 206°
2026-05-04 13:07 -37.73837 174.50328 24587 ft 416 kts 206°
2026-05-04 13:07 -37.76449 174.48741 24986 ft 418 kts 207°
2026-05-04 13:07 -37.79080 174.47136 25375 ft 421 kts 207°
2026-05-04 13:08 -37.81691 174.45540 25762 ft 423 kts 207°
2026-05-04 13:08 -37.84348 174.43913 26165 ft 424 kts 207°
2026-05-04 13:08 -37.87012 174.42284 26570 ft 426 kts 207°
2026-05-04 13:08 -37.89690 174.40648 26954 ft 428 kts 207°
2026-05-04 13:09 -37.92381 174.39008 27334 ft 430 kts 207°
2026-05-04 13:09 -37.95085 174.37357 27700 ft 433 kts 207°
2026-05-04 13:09 -37.97801 174.35696 28065 ft 435 kts 207°
2026-05-04 13:09 -38.00537 174.34017 28426 ft 437 kts 207°
2026-05-04 13:10 -38.03290 174.32320 28799 ft 439 kts 207°
2026-05-04 13:10 -38.06051 174.30617 29155 ft 441 kts 206°
2026-05-04 13:10 -38.08827 174.28908 29538 ft 443 kts 206°
2026-05-04 13:10 -38.11605 174.27197 29909 ft 445 kts 206°
2026-05-04 13:11 -38.14404 174.25475 30287 ft 448 kts 206°
2026-05-04 13:11 -38.17219 174.23746 30639 ft 450 kts 206°
2026-05-04 13:11 -38.20043 174.22011 30922 ft 452 kts 206°
2026-05-04 13:11 -38.22881 174.20268 31265 ft 453 kts 206°
2026-05-04 13:12 -38.25723 174.18516 31661 ft 453 kts 206°
2026-05-04 13:12 -38.28549 174.16763 32077 ft 451 kts 206°
2026-05-04 13:12 -38.31332 174.15032 32509 ft 450 kts 206°
2026-05-04 13:12 -38.34147 174.13281 32940 ft 449 kts 206°
2026-05-04 13:13 -38.36950 174.11536 33392 ft 447 kts 206°
2026-05-04 13:13 -38.39748 174.09796 33849 ft 446 kts 206°
2026-05-04 13:13 -38.42534 174.08068 34294 ft 444 kts 206°
2026-05-04 13:13 -38.45308 174.06344 34709 ft 443 kts 206°
2026-05-04 13:14 -38.48082 174.04618 35068 ft 442 kts 206°
2026-05-04 13:14 -38.50846 174.02896 35415 ft 441 kts 206°
2026-05-04 13:14 -38.53607 174.01178 35747 ft 440 kts 206°
2026-05-04 13:14 -38.56328 173.99484 36067 ft 439 kts 206°
2026-05-04 13:15 -38.59074 173.97770 36381 ft 439 kts 206°
2026-05-04 13:15 -38.61820 173.96056 36701 ft 438 kts 206°
2026-05-04 13:15 -38.64559 173.94345 37007 ft 437 kts 206°
2026-05-04 13:15 -38.67286 173.92637 37302 ft 436 kts 206°
2026-05-04 13:16 -38.70009 173.90927 37589 ft 436 kts 206°
2026-05-04 13:16 -38.72729 173.89219 37880 ft 435 kts 207°
2026-05-04 13:16 -38.75446 173.87514 38017 ft 436 kts 206°
2026-05-04 13:17 -38.80913 173.84076 38038 ft 438 kts 206°
2026-05-04 13:17 -38.86383 173.80631 38033 ft 438 kts 206°
2026-05-04 13:17 -38.89126 173.78902 38239 ft 438 kts 206°
2026-05-04 13:18 -38.91871 173.77174 38501 ft 438 kts 206°
2026-05-04 13:18 -38.97346 173.73723 38570 ft 438 kts 206°
2026-05-04 13:19 -39.02789 173.70277 38572 ft 437 kts 207°
2026-05-04 13:19 -39.07977 173.66210 38570 ft 437 kts 214°
2026-05-04 13:20 -39.13063 173.61896 38570 ft 437 kts 214°
2026-05-04 13:20 -39.18146 173.57603 38574 ft 437 kts 213°
2026-05-04 13:21 -39.23242 173.53303 38574 ft 437 kts 213°
2026-05-04 13:21 -39.28327 173.49001 38580 ft 437 kts 214°
2026-05-04 13:22 -39.33379 173.44705 38576 ft 437 kts 214°
2026-05-04 13:22 -39.38459 173.40375 38582 ft 437 kts 214°
2026-05-04 13:23 -39.43538 173.36037 38582 ft 437 kts 214°
2026-05-04 13:23 -39.48618 173.31702 38586 ft 436 kts 213°
2026-05-04 13:24 -39.53659 173.27392 38577 ft 436 kts 214°
2026-05-04 13:24 -39.58721 173.23046 38578 ft 436 kts 214°
2026-05-04 13:25 -39.66302 173.16520 38577 ft 435 kts 213°
2026-05-04 13:25 -39.71346 173.12173 38569 ft 435 kts 213°
2026-05-04 13:26 -39.75544 173.08549 38568 ft 435 kts 213°
2026-05-04 13:26 -39.80595 173.04192 38572 ft 435 kts 213°
2026-05-04 13:27 -39.85639 172.99834 38572 ft 435 kts 213°
2026-05-04 13:27 -39.90671 172.95460 38570 ft 434 kts 213°
2026-05-04 13:28 -39.95700 172.91079 38567 ft 434 kts 213°
2026-05-04 13:28 -40.00726 172.86709 38566 ft 434 kts 213°
2026-05-04 13:29 -40.05721 172.82365 38569 ft 434 kts 213°
2026-05-04 13:29 -40.10743 172.77986 38568 ft 434 kts 213°
2026-05-04 13:30 -40.15757 172.73588 38560 ft 433 kts 213°
2026-05-04 13:30 -40.20768 172.69185 38562 ft 433 kts 213°
2026-05-04 13:31 -40.25776 172.64781 38567 ft 433 kts 213°
2026-05-04 13:31 -40.30787 172.60373 38567 ft 433 kts 213°
2026-05-04 13:32 -40.35796 172.55955 38560 ft 433 kts 213°
2026-05-04 13:32 -40.40755 172.51578 38559 ft 432 kts 213°
2026-05-04 13:33 -40.45751 172.47163 38557 ft 432 kts 213°
2026-05-04 13:33 -40.50746 172.42736 38557 ft 432 kts 213°
2026-05-04 13:34 -40.55731 172.38304 38560 ft 432 kts 213°
2026-05-04 13:34 -40.60714 172.33859 38564 ft 432 kts 213°
2026-05-04 13:35 -40.68176 172.27217 38559 ft 431 kts 213°
2026-05-04 13:36 -40.73120 172.22804 38558 ft 432 kts 213°
2026-05-04 13:36 -40.78097 172.18348 38564 ft 432 kts 213°
2026-05-04 13:37 -40.83062 172.13892 38565 ft 432 kts 214°
2026-05-04 13:37 -40.88037 172.09419 38563 ft 431 kts 214°
2026-05-04 13:38 -40.92997 172.04955 38564 ft 431 kts 214°
2026-05-04 13:38 -40.97965 172.00480 38561 ft 431 kts 214°
2026-05-04 13:39 -41.02895 171.96026 38565 ft 431 kts 214°
2026-05-04 13:39 -41.07846 171.91529 38558 ft 430 kts 214°
2026-05-04 13:40 -41.12789 171.87048 38560 ft 430 kts 214°
2026-05-04 13:40 -41.17726 171.82564 38562 ft 429 kts 214°
2026-05-04 13:41 -41.22634 171.78095 38564 ft 429 kts 214°
2026-05-04 13:41 -41.27562 171.73598 38569 ft 430 kts 214°
2026-05-04 13:42 -41.34953 171.66841 38568 ft 429 kts 214°
2026-05-04 13:42 -41.39881 171.62320 38562 ft 429 kts 214°
2026-05-04 13:43 -41.44809 171.57801 38561 ft 429 kts 214°
2026-05-04 13:43 -41.49696 171.53312 38575 ft 429 kts 214°
2026-05-04 13:44 -41.54611 171.48784 38567 ft 428 kts 214°
2026-05-04 13:44 -41.59522 171.44252 38564 ft 428 kts 215°
2026-05-04 13:45 -41.64417 171.39719 38561 ft 428 kts 215°
2026-05-04 13:45 -41.69283 171.35209 38570 ft 427 kts 215°
2026-05-04 13:46 -41.74173 171.30673 38567 ft 427 kts 215°
2026-05-04 13:46 -41.79053 171.26135 38552 ft 427 kts 215°
2026-05-04 13:47 -41.83929 171.21580 38557 ft 426 kts 215°
2026-05-04 13:47 -41.88801 171.17027 38565 ft 426 kts 215°
2026-05-04 13:48 -41.93663 171.12461 38561 ft 426 kts 215°
2026-05-04 13:48 -41.98500 171.07913 38568 ft 426 kts 215°
2026-05-04 13:49 -42.03360 171.03342 38563 ft 426 kts 215°
2026-05-04 13:49 -42.08217 170.98764 38570 ft 426 kts 215°
2026-05-04 13:50 -42.13061 170.94176 38567 ft 425 kts 215°
2026-05-04 13:50 -42.17904 170.89584 38558 ft 425 kts 215°
2026-05-04 13:51 -42.22742 170.84988 38559 ft 425 kts 215°
2026-05-04 13:51 -42.27567 170.80397 38567 ft 424 kts 216°
2026-05-04 13:52 -42.34802 170.73508 38565 ft 424 kts 215°
2026-05-04 13:53 -42.39620 170.68907 38565 ft 424 kts 216°
2026-05-04 13:53 -42.44421 170.64311 38562 ft 424 kts 216°
2026-05-04 13:54 -42.51638 170.57382 38564 ft 424 kts 216°
2026-05-04 13:55 -42.58795 170.50472 38558 ft 424 kts 216°
2026-05-04 13:55 -42.66017 170.43500 38562 ft 424 kts 216°
2026-05-04 13:56 -42.70801 170.38883 38563 ft 424 kts 216°
2026-05-04 13:57 -42.78009 170.31895 38559 ft 423 kts 216°
2026-05-04 13:58 -42.87591 170.22560 38560 ft 423 kts 216°
2026-05-04 13:58 -42.94773 170.15549 38561 ft 423 kts 216°
2026-05-04 13:59 -42.99547 170.10864 38564 ft 422 kts 216°
2026-05-04 14:00 -43.06709 170.03832 38564 ft 422 kts 216°
2026-05-04 14:00 -43.13823 169.96852 38566 ft 421 kts 216°
2026-05-04 14:01 -43.18606 169.92128 38561 ft 421 kts 217°
2026-05-04 14:02 -43.25711 169.85092 38566 ft 421 kts 217°
2026-05-04 14:02 -43.30457 169.80390 38561 ft 420 kts 217°
2026-05-04 14:03 -43.35197 169.75677 38558 ft 420 kts 217°
2026-05-04 14:03 -43.39926 169.70953 38569 ft 420 kts 217°
2026-05-04 14:04 -43.46223 169.64677 38566 ft 419 kts 217°
2026-05-04 14:04 -43.50946 169.59957 38565 ft 419 kts 217°
2026-05-04 14:05 -43.58040 169.52862 38575 ft 419 kts 217°
2026-05-04 14:06 -43.62750 169.48123 38563 ft 418 kts 217°
2026-05-04 14:06 -43.67433 169.43396 38566 ft 418 kts 217°
2026-05-04 14:07 -43.72106 169.38680 38564 ft 418 kts 217°
2026-05-04 14:07 -43.76803 169.33928 38580 ft 418 kts 217°
2026-05-04 14:08 -43.81492 169.29175 38578 ft 417 kts 217°
2026-05-04 14:08 -43.86159 169.24441 37804 ft 414 kts 217°
2026-05-04 14:08 -43.88517 169.22050 36289 ft 431 kts 217°
2026-05-04 14:09 -43.93484 169.16986 34278 ft 450 kts 217°
2026-05-04 14:09 -43.95999 169.14419 33851 ft 440 kts 217°
2026-05-04 14:10 -44.00797 169.09525 32823 ft 416 kts 218°
2026-05-04 14:10 -44.03102 169.07165 32371 ft 410 kts 218°
2026-05-04 14:10 -44.05356 169.04854 31930 ft 406 kts 218°
2026-05-04 14:10 -44.07625 169.02527 31495 ft 403 kts 218°
2026-05-04 14:11 -44.09873 169.00221 31064 ft 400 kts 219°
2026-05-04 14:11 -44.14329 168.95644 30165 ft 394 kts 219°
2026-05-04 14:11 -44.16529 168.93382 29737 ft 390 kts 219°
2026-05-04 14:12 -44.18703 168.91145 29343 ft 386 kts 219°
2026-05-04 14:12 -44.20861 168.88914 28950 ft 383 kts 220°
2026-05-04 14:12 -44.25086 168.84530 28155 ft 378 kts 219°
2026-05-04 14:13 -44.27188 168.82350 27772 ft 375 kts 219°
2026-05-04 14:13 -44.29286 168.80182 27367 ft 373 kts 220°
2026-05-04 14:13 -44.31367 168.78031 26969 ft 371 kts 220°
2026-05-04 14:13 -44.33437 168.75886 26567 ft 369 kts 219°
2026-05-04 14:14 -44.35493 168.73751 26163 ft 367 kts 219°
2026-05-04 14:14 -44.39578 168.69498 25329 ft 365 kts 219°
2026-05-04 14:14 -44.41593 168.67394 24906 ft 364 kts 219°
2026-05-04 14:15 -44.45643 168.63158 24028 ft 363 kts 219°
2026-05-04 14:15 -44.49686 168.58932 23115 ft 360 kts 220°
2026-05-04 14:16 -44.53695 168.54740 22230 ft 358 kts 219°
2026-05-04 14:16 -44.55686 168.52654 21821 ft 356 kts 220°
2026-05-04 14:17 -44.59643 168.48487 20956 ft 354 kts 220°
2026-05-04 14:17 -44.61639 168.46455 20544 ft 355 kts 213°
2026-05-04 14:17 -44.66431 168.44994 19656 ft 361 kts 173°
2026-05-04 14:18 -44.68829 168.46009 19190 ft 363 kts 152°
2026-05-04 14:18 -44.72868 168.50195 18489 ft 357 kts 141°
2026-05-04 14:19 -44.76921 168.54078 18502 ft 354 kts 159°
2026-05-04 14:19 -44.79286 168.54964 18501 ft 352 kts 175°
2026-05-04 14:19 -44.81710 168.54950 18498 ft 347 kts 191°
2026-05-04 14:19 -44.84025 168.54114 18489 ft 343 kts 201°
2026-05-04 14:20 -44.86280 168.53045 17740 ft 352 kts 201°
2026-05-04 14:20 -44.88686 168.51900 16684 ft 367 kts 201°
2026-05-04 14:20 -44.91142 168.50734 15831 ft 376 kts 201°
2026-05-04 14:21 -44.95726 168.47583 14709 ft 363 kts 226°
2026-05-04 14:21 -44.97343 168.44930 14185 ft 351 kts 242°
2026-05-04 14:21 -44.98527 168.41891 12886 ft 351 kts 248°
2026-05-04 14:21 -44.99586 168.38901 12371 ft 333 kts 249°
2026-05-04 14:22 -45.00573 168.36058 12108 ft 310 kts 249°
2026-05-04 14:22 -45.01471 168.33464 11866 ft 291 kts 250°
2026-05-04 14:22 -45.02346 168.30978 11700 ft 273 kts 246°
2026-05-04 14:22 -45.03425 168.28824 11551 ft 266 kts 234°
2026-05-04 14:23 -45.06447 168.25802 10634 ft 277 kts 208°
2026-05-04 14:23 -45.08375 168.25069 9870 ft 294 kts 192°
2026-05-04 14:23 -45.10440 168.25057 9411 ft 297 kts 175°
2026-05-04 14:24 -45.12426 168.25753 9262 ft 297 kts 160°
2026-05-04 14:24 -45.14197 168.27137 8897 ft 290 kts 140°
2026-05-04 14:24 -45.15529 168.29240 8478 ft 283 kts 119°
2026-05-04 14:24 -45.16290 168.31755 8088 ft 273 kts 98°
2026-05-04 14:25 -45.16465 168.34344 7704 ft 259 kts 81°
2026-05-04 14:25 -45.15380 168.39017 6948 ft 242 kts 57°
2026-05-04 14:25 -45.14611 168.41077 6595 ft 231 kts 58°
2026-05-04 14:26 -45.13877 168.43047 6290 ft 223 kts 58°
2026-05-04 14:26 -45.13159 168.44965 5977 ft 218 kts 58°
2026-05-04 14:26 -45.12461 168.46828 5689 ft 208 kts 58°
2026-05-04 14:26 -45.11804 168.48595 5373 ft 197 kts 59°
2026-05-04 14:27 -45.11182 168.50264 5089 ft 188 kts 58°
2026-05-04 14:27 -45.10589 168.51844 4829 ft 180 kts 58°
2026-05-04 14:27 -45.10009 168.53383 4589 ft 175 kts 58°
2026-05-04 14:27 -45.09440 168.54891 4347 ft 174 kts 58°
2026-05-04 14:28 -45.08871 168.56399 4100 ft 173 kts 60°
2026-05-04 14:28 -45.08311 168.57895 3838 ft 171 kts 61°
2026-05-04 14:28 -45.07754 168.59377 3583 ft 168 kts 61°
2026-05-04 14:28 -45.07208 168.60826 3339 ft 165 kts 61°
2026-05-04 14:29 -45.06194 168.63517 2920 ft 143 kts 61°
2026-05-04 14:29 -45.05300 168.65891 2567 ft 137 kts 61°
2026-05-04 14:30 -45.04847 168.67098 2379 ft 138 kts 61°
2026-05-04 14:30 -45.04305 168.68204 2198 ft 140 kts 43°
2026-05-04 14:30 -45.02803 168.69903 1751 ft 137 kts 50°
2026-05-04 14:31 -45.02411 168.71106 1598 ft 136 kts 73°
2026-05-04 14:31 -45.01993 168.73647 1213 ft 128 kts 73°
2026-05-04 14:32 -45.01602 168.76039 1703 ft 132 kts 73°
2026-05-04 14:32 -45.01355 168.77322 2386 ft 137 kts 73°
2026-05-04 14:32 -45.00987 168.78559 2961 ft 142 kts 51°
2026-05-04 14:32 -45.00128 168.79365 3156 ft 162 kts 26°
2026-05-04 14:33 -44.99039 168.80094 3468 ft 174 kts 26°
2026-05-04 14:33 -44.97859 168.80474 4079 ft 175 kts 359°
2026-05-04 14:33 -44.96668 168.80079 4658 ft 179 kts 333°
2026-05-04 14:33 -44.95723 168.78999 5287 ft 179 kts 309°
2026-05-04 14:34 -44.95177 168.77411 5812 ft 184 kts 284°
2026-05-04 14:34 -44.95188 168.75599 6405 ft 189 kts 259°
2026-05-04 14:34 -44.95780 168.73913 7008 ft 196 kts 235°
2026-05-04 14:34 -44.96838 168.72668 7610 ft 204 kts 211°
2026-05-04 14:35 -44.98237 168.72138 8197 ft 213 kts 185°
2026-05-04 14:35 -44.99706 168.72545 8770 ft 222 kts 156°
2026-05-04 14:35 -45.01064 168.73661 9187 ft 234 kts 153°
2026-05-04 14:35 -45.02627 168.74646 9403 ft 255 kts 165°
2026-05-04 14:36 -45.04408 168.75250 9699 ft 271 kts 177°
2026-05-04 14:36 -45.06314 168.75378 9983 ft 274 kts 188°
2026-05-04 14:36 -45.08206 168.75198 10008 ft 272 kts 189°
2026-05-04 14:36 -45.10095 168.75016 10007 ft 272 kts 189°
2026-05-04 14:37 -45.11986 168.74835 10015 ft 277 kts 189°
2026-05-04 14:37 -45.13934 168.74646 10017 ft 282 kts 189°
2026-05-04 14:37 -45.15880 168.74460 10012 ft 283 kts 189°
2026-05-04 14:37 -45.17854 168.74276 10013 ft 283 kts 189°
2026-05-04 14:38 -45.19818 168.74093 10009 ft 283 kts 189°
2026-05-04 14:38 -45.21798 168.73908 10015 ft 283 kts 189°
2026-05-04 14:38 -45.23759 168.73725 10013 ft 282 kts 189°
2026-05-04 14:38 -45.25719 168.73539 10005 ft 282 kts 189°
2026-05-04 14:39 -45.27676 168.73349 10006 ft 282 kts 189°
2026-05-04 14:39 -45.29631 168.73160 10002 ft 282 kts 189°
2026-05-04 14:39 -45.31585 168.72884 10002 ft 279 kts 196°
2026-05-04 14:40 -45.35188 168.71230 9993 ft 270 kts 213°
2026-05-04 14:40 -45.36874 168.70051 9991 ft 270 kts 213°
2026-05-04 14:40 -45.38565 168.68878 9981 ft 270 kts 212°
2026-05-04 14:40 -45.40252 168.67711 9986 ft 270 kts 212°
2026-05-04 14:41 -45.41942 168.66544 9983 ft 269 kts 212°
2026-05-04 14:41 -45.43625 168.65381 9986 ft 269 kts 212°
2026-05-04 14:41 -45.46798 168.62867 9975 ft 242 kts 234°
2026-05-04 14:42 -45.47718 168.59516 9976 ft 214 kts 263°
2026-05-04 14:42 -45.48189 168.57505 9976 ft 221 kts 245°
2026-05-04 14:42 -45.49230 168.55822 9980 ft 232 kts 225°
2026-05-04 14:43 -45.51183 168.54427 9980 ft 244 kts 201°
2026-05-04 14:43 -45.52329 168.54169 9972 ft 250 kts 187°
2026-05-04 14:43 -45.54080 168.54502 9974 ft 259 kts 165°
2026-05-04 14:43 -45.55630 168.55844 9972 ft 266 kts 133°
2026-05-04 14:44 -45.56445 168.58155 9969 ft 262 kts 92°
2026-05-04 14:44 -45.56165 168.60625 9967 ft 249 kts 53°
2026-05-04 14:44 -45.54978 168.62216 9975 ft 228 kts 13°
2026-05-04 14:44 -45.53480 168.62720 9967 ft 223 kts
2026-05-04 14:45 -45.51938 168.63021 9972 ft 223 kts 360°
2026-05-04 14:45 -45.50401 168.63260 9979 ft 222 kts 359°
2026-05-04 14:45 -45.48862 168.63470 9982 ft 222 kts 358°
2026-05-04 14:45 -45.47319 168.63667 9971 ft 222 kts 358°
2026-05-04 14:46 -45.45775 168.63846 9973 ft 220 kts 355°
2026-05-04 14:46 -45.44336 168.63393 9972 ft 210 kts 325°
2026-05-04 14:46 -45.43382 168.61904 9988 ft 206 kts 292°
2026-05-04 14:46 -45.43204 168.59881 9984 ft 212 kts 265°
2026-05-04 14:47 -45.43699 168.57870 9986 ft 221 kts 243°
2026-05-04 14:47 -45.44782 168.56265 9977 ft 233 kts 219°
2026-05-04 14:47 -45.46279 168.55257 9975 ft 240 kts 210°
2026-05-04 14:47 -45.47867 168.54566 9975 ft 248 kts 191°
2026-05-04 14:48 -45.49618 168.54356 9972 ft 247 kts 195°
2026-05-04 14:48 -45.51288 168.53934 9980 ft 247 kts 197°
2026-05-04 14:48 -45.52999 168.53684 9968 ft 253 kts 181°
2026-05-04 14:48 -45.54717 168.54414 9975 ft 263 kts 149°
2026-05-04 14:49 -45.55922 168.56354 9974 ft 265 kts 110°
2026-05-04 14:49 -45.56111 168.58894 9975 ft 255 kts 70°
2026-05-04 14:49 -45.55305 168.61025 9973 ft 241 kts 38°
2026-05-04 14:49 -45.53998 168.62440 9972 ft 231 kts 18°
2026-05-04 14:50 -45.52496 168.63071 9971 ft 223 kts
2026-05-04 14:50 -45.50955 168.63321 9972 ft 222 kts 358°
2026-05-04 14:50 -45.49439 168.63500 9970 ft 221 kts 358°
2026-05-04 14:50 -45.47901 168.63666 9976 ft 222 kts 358°
2026-05-04 14:51 -45.46363 168.63832 9975 ft 221 kts 358°
2026-05-04 14:51 -45.44859 168.63736 9977 ft 212 kts 336°
2026-05-04 14:51 -45.43673 168.62611 9983 ft 205 kts 305°
2026-05-04 14:51 -45.43191 168.60723 9986 ft 208 kts 275°
2026-05-04 14:52 -45.43442 168.58660 9992 ft 217 kts 253°
2026-05-04 14:52 -45.44296 168.56846 9977 ft 228 kts 229°
2026-05-04 14:52 -45.45674 168.55644 9971 ft 239 kts 210°
2026-05-04 14:52 -45.47230 168.54767 9972 ft 243 kts 201°
2026-05-04 14:53 -45.48940 168.54513 9971 ft 249 kts 192°
2026-05-04 14:53 -45.50620 168.54143 9975 ft 246 kts 197°
2026-05-04 14:53 -45.52312 168.53729 9970 ft 249 kts 190°
2026-05-04 14:53 -45.54058 168.54005 9965 ft 259 kts 163°
2026-05-04 14:54 -45.55534 168.55476 9976 ft 265 kts 126°
2026-05-04 14:54 -45.56160 168.57894 9977 ft 260 kts 85°
2026-05-04 14:54 -45.55696 168.60282 9967 ft 245 kts 49°
2026-05-04 14:54 -45.54548 168.61955 9975 ft 235 kts 26°
2026-05-04 14:55 -45.53104 168.62902 9973 ft 224 kts
2026-05-04 14:55 -45.51574 168.63220 9973 ft 221 kts 359°
2026-05-04 14:55 -45.50023 168.63418 9969 ft 221 kts 358°
2026-05-04 14:55 -45.48509 168.63581 9976 ft 221 kts 358°
2026-05-04 14:56 -45.46976 168.63747 9976 ft 221 kts 358°
2026-05-04 14:56 -45.45451 168.63870 9971 ft 217 kts 350°
2026-05-04 14:56 -45.43985 168.63306 9986 ft 224 kts 327°
2026-05-04 14:56 -45.42647 168.62148 9975 ft 227 kts 325°
2026-05-04 14:57 -45.41296 168.60935 9988 ft 228 kts 324°
2026-05-04 14:57 -45.39951 168.59720 9982 ft 229 kts 324°
2026-05-04 14:57 -45.38611 168.58510 9981 ft 228 kts 324°
2026-05-04 14:57 -45.37262 168.57294 9983 ft 228 kts 325°
2026-05-04 14:58 -45.35926 168.56093 9991 ft 228 kts 324°
2026-05-04 14:58 -45.34591 168.54893 9991 ft 222 kts 324°
2026-05-04 14:58 -45.33322 168.53753 9994 ft 211 kts 324°
2026-05-04 14:58 -45.32148 168.52703 9986 ft 192 kts 324°
2026-05-04 14:59 -45.31049 168.51722 9984 ft 181 kts 324°
2026-05-04 14:59 -45.29993 168.50775 9987 ft 178 kts 324°
2026-05-04 14:59 -45.27899 168.48885 9857 ft 183 kts 324°
2026-05-04 15:00 -45.26802 168.47893 9557 ft 188 kts 325°
2026-05-04 15:00 -45.25699 168.46900 9297 ft 188 kts 325°
2026-05-04 15:00 -45.24580 168.45897 9021 ft 190 kts 325°
2026-05-04 15:01 -45.22359 168.43919 8517 ft 189 kts 326°
2026-05-04 15:01 -45.21232 168.42910 8241 ft 192 kts 326°
2026-05-04 15:01 -45.20112 168.41906 8006 ft 187 kts 326°
2026-05-04 15:01 -45.19048 168.40954 7729 ft 181 kts 326°
2026-05-04 15:02 -45.17961 168.40023 7491 ft 182 kts 334°
2026-05-04 15:02 -45.16733 168.39666 7247 ft 183 kts 359°
2026-05-04 15:02 -45.15495 168.40125 6967 ft 187 kts 24°
2026-05-04 15:02 -45.14525 168.41344 6621 ft 190 kts 52°
2026-05-04 15:03 -45.13893 168.43004 6299 ft 191 kts 58°
2026-05-04 15:03 -45.13273 168.44674 6020 ft 191 kts 58°
2026-05-04 15:03 -45.12651 168.46336 5749 ft 190 kts 59°
2026-05-04 15:03 -45.12034 168.47985 5471 ft 188 kts 59°
2026-05-04 15:04 -45.11430 168.49602 5198 ft 185 kts 58°
2026-05-04 15:04 -45.10830 168.51203 4945 ft 184 kts 60°
2026-05-04 15:04 -45.10240 168.52775 4691 ft 183 kts 60°
2026-05-04 15:04 -45.09641 168.54363 4430 ft 182 kts 59°
2026-05-04 15:05 -45.09044 168.55946 4172 ft 182 kts 59°
2026-05-04 15:05 -45.08450 168.57523 3902 ft 181 kts 60°
2026-05-04 15:05 -45.07861 168.59087 3627 ft 178 kts 61°
2026-05-04 15:05 -45.07287 168.60615 3379 ft 173 kts 61°
2026-05-04 15:06 -45.06733 168.62087 3127 ft 165 kts 61°
2026-05-04 15:06 -45.06217 168.63461 2927 ft 151 kts 61°
2026-05-04 15:06 -45.05749 168.64700 2720 ft 138 kts 60°
2026-05-04 15:07 -45.04862 168.67025 2358 ft 136 kts 56°
2026-05-04 15:07 -45.04254 168.68070 2168 ft 138 kts 47°
2026-05-04 15:07 -45.03579 168.69024 2005 ft 139 kts 41°
2026-05-04 15:07 -45.02844 168.69906 1804 ft 138 kts 41°
2026-05-04 15:08 -45.02337 168.71020 1623 ft 136 kts 75°
2026-05-04 15:08 -45.02199 168.72327 1419 ft 131 kts 74°
2026-05-04 15:08 -45.02000 168.73593 1228 ft 130 kts 74°
2026-05-04 15:08 -45.01817 168.74717 1172 ft 96 kts 78°
2026-05-04 15:09 -45.01704 168.75449 1222 ft 57 kts 77°
2026-05-04 15:09 -45.01655 168.75753 1224 ft 17 kts 66°
2026-05-04 15:09 -45.01644 168.75845 1229 ft 6 kts 168°
2026-05-04 15:10 -45.01667 168.75692 1224 ft 13 kts 258°
2026-05-04 15:10 -45.01691 168.75544 1224 ft 20 kts 257°
2026-05-04 15:10 -45.01767 168.75054 1216 ft 29 kts 257°
2026-05-04 15:11 -45.01813 168.74755 1170 ft 33 kts 257°
2026-05-04 15:11 -45.01863 168.74434 1176 ft 34 kts 257°
2026-05-04 15:11 -45.01909 168.74154 1177 ft 16 kts 253°
2026-05-04 15:11 -45.01986 168.74094 1173 ft 13 kts 204°
2026-05-04 15:12 -45.02012 168.74078 1174 ft 0 kts 204°
2026-05-04 15:12 -45.02030 168.74067 1169 ft 10 kts 204°
2026-05-04 15:12 -45.02098 168.74091 1173 ft 13 kts 123°
2026-05-04 15:12 -45.02137 168.74162 1171 ft 6 kts 182°
2026-05-04 15:13 -45.02156 168.74115 1171 ft 5 kts 251°
2026-05-04 15:13 -45.02159 168.74102 1170 ft 0 kts 251°
2026-05-04 15:17 -45.02159 168.74101 1170 ft 0 kts 251°